Spearman, TX

3:26 PM CDT on August 30, 2016 (GMT -0500)
Pampa / Mesa Vista

Weather History for KBPC - August, 2013

Change the Weather History Date:

Saturday, August 24, 2013

  Actual Average (KBGD) Record (KBGD)
Temperature  
Mean Temperature 80 °F 79 °F  
Max Temperature 93 °F 91 °F 106 °F (2011)
Min Temperature 68 °F 67 °F 54 °F (1966)
Degree Days  
Heating Degree Days 0 0  
Month to date heating degree days 0  
Since 1 June heating degree days 3  
Since 1 July heating degree days 0  
Cooling Degree Days 16 14  
Month to date cooling degree days 379  
Year to date cooling degree days 1460  
Since 1 June cooling degree days 1263  
Growing Degree Days 30 (Base 50)    
Moisture  
Dew Point 58 °F    
Average Humidity 47    
Maximum Humidity 78    
Minimum Humidity 28    
Precipitation  
Precipitation 0.00 in 0.12 in 0.78 in (2012)
Month to date precipitation 2.43  
Year to date precipitation 15.27  
Snow  
Snow 0.00 in - 0.00 in (2013)
Month to date snowfall  
Since 1 June snowfall  
Since 1 July snowfall  
Snow Depth -    
Sea Level Pressure  
Sea Level Pressure 30.09 in    
Wind  
Wind Speed 12 mph (South)    
Max Wind Speed 20 mph    
Max Gust Speed 28 mph    
Visibility 10 miles    
Events      
T = Trace of Precipitation, MM = Missing Value Source: NWS Daily Summary

Daily Weather History Graph

Daily Weather History Graph

Search for Another Location

Airport or City:

Trip Planner

Search our weather history database for the weather conditions in past years. The results will help you decide how hot, cold, wet, or windy it might be!

Date:

Astronomy

Aug. 24, 2013 Rise Set
Actual Time 7:10 AM CDT 8:22 PM CDT
Civil Twilight 6:43 AM CDT 8:48 PM CDT
Nautical Twilight 6:11 AM CDT 9:20 PM CDT
Astronomical Twilight 5:38 AM CDT 9:53 PM CDT
Moon 10:28 PM CDT (8/24) 11:01 AM CDT (8/24)
Length of Visible Light 14h 05m
Length of Day
13h 12m
Waning Gibbous, 84% of the Moon is Illuminated
Aug 24
Waning Gibbous
Aug 28
Last Quarter
Sep 5
New
Sep 12
First Quarter
Sep 19
Full

Hourly Weather History & Observations

Time (CDT) Temp. Heat Index Dew Point Humidity Pressure Visibility Wind Dir Wind Speed Gust Speed Precip Events Conditions
12:15 AM 78.8 °F - 59.0 °F 51% 30.04 in 10.0 mi South 13.8 mph 19.6 mph N/A   Clear
12:35 AM 77.0 °F - 59.0 °F 54% 30.05 in 10.0 mi South 13.8 mph - N/A   Clear
12:55 AM 77.0 °F - 59.0 °F 54% 30.05 in 10.0 mi SSE 15.0 mph - N/A   Clear
1:15 AM 77.0 °F - 59.0 °F 54% 30.05 in 10.0 mi SSE 15.0 mph - N/A   Clear
1:35 AM 77.0 °F - 59.0 °F 54% 30.05 in 10.0 mi South 16.1 mph 20.7 mph N/A   Clear
1:55 AM 77.0 °F - 59.0 °F 54% 30.05 in 10.0 mi South 15.0 mph 20.7 mph N/A   Clear
2:15 AM 75.2 °F - 59.0 °F 57% 30.06 in 10.0 mi South 12.7 mph - N/A   Clear
2:35 AM 77.0 °F - 59.0 °F 54% 30.06 in 10.0 mi South 12.7 mph - N/A   Clear
2:55 AM 77.0 °F - 59.0 °F 54% 30.06 in 10.0 mi South 12.7 mph - N/A   Clear
3:15 AM 77.0 °F - 59.0 °F 54% 30.06 in 10.0 mi South 13.8 mph - N/A   Clear
3:35 AM 77.0 °F - 59.0 °F 54% 30.07 in 10.0 mi SSW 11.5 mph - N/A   Clear
3:55 AM 75.2 °F - 59.0 °F 57% 30.07 in 10.0 mi SSW 11.5 mph - N/A   Clear
4:15 AM 73.4 °F - 59.0 °F 61% 30.07 in 10.0 mi South 10.4 mph 16.1 mph N/A   Clear
4:35 AM 73.4 °F - 59.0 °F 61% 30.07 in 10.0 mi South 11.5 mph - N/A   Clear
4:55 AM 73.4 °F - 59.0 °F 61% 30.08 in 10.0 mi SSW 8.1 mph - N/A   Clear
5:15 AM 71.6 °F - 59.0 °F 64% 30.08 in 10.0 mi WSW 3.5 mph - N/A   Clear
5:35 AM 69.8 °F - 59.0 °F 68% 30.09 in 10.0 mi East 3.5 mph - N/A   Clear
5:55 AM 71.6 °F - 59.0 °F 64% 30.09 in 10.0 mi Calm Calm - N/A   Clear
6:15 AM 69.8 °F - 59.0 °F 68% 30.09 in 10.0 mi Calm Calm - N/A   Clear
6:35 AM 68.0 °F - 59.0 °F 73% 30.10 in 10.0 mi SSE 8.1 mph - N/A   Clear
6:55 AM 68.0 °F - 60.8 °F 78% 30.10 in 10.0 mi South 5.8 mph - N/A   Clear
7:15 AM 68.0 °F - 60.8 °F 78% 30.11 in 10.0 mi SSW 4.6 mph - N/A   Clear
7:35 AM 68.0 °F - 60.8 °F 78% 30.11 in 10.0 mi SSW 6.9 mph - N/A   Clear
7:55 AM 69.8 °F - 60.8 °F 73% 30.12 in 10.0 mi SSW 5.8 mph - N/A   Clear
8:15 AM 71.6 °F - 60.8 °F 69% 30.13 in 10.0 mi Calm Calm - N/A   Clear
8:35 AM 73.4 °F - 60.8 °F 65% 30.13 in 10.0 mi SSW 4.6 mph - N/A   Clear
8:55 AM 75.2 °F - 60.8 °F 61% 30.13 in 10.0 mi South 5.8 mph - N/A   Clear
9:15 AM 78.8 °F - 60.8 °F 54% 30.13 in 10.0 mi SSW 9.2 mph - N/A   Clear
9:35 AM 78.8 °F - 60.8 °F 54% 30.13 in 10.0 mi SSW 10.4 mph - N/A   Clear
9:55 AM 80.6 °F 81.5 °F 60.8 °F 51% 30.13 in 10.0 mi SSW 10.4 mph - N/A   Clear
10:15 AM 82.4 °F 82.9 °F 60.8 °F 48% 30.13 in 10.0 mi SSW 12.7 mph - N/A   Clear
10:35 AM 84.2 °F 84.4 °F 60.8 °F 45% 30.14 in 10.0 mi SSW 10.4 mph - N/A   Clear
10:55 AM 86.0 °F 85.4 °F 59.0 °F 40% 30.13 in 10.0 mi SW 11.5 mph - N/A   Clear
11:15 AM 87.8 °F 87.1 °F 59.0 °F 38% 30.13 in 10.0 mi SW 10.4 mph - N/A   Clear
11:35 AM 87.8 °F 87.1 °F 59.0 °F 38% 30.13 in 10.0 mi SSW 12.7 mph 20.7 mph N/A   Clear
11:55 AM 89.6 °F 88.9 °F 59.0 °F 36% 30.13 in 10.0 mi SSW 15.0 mph 19.6 mph N/A   Clear
12:15 PM 89.6 °F 88.1 °F 57.2 °F 33% 30.13 in 10.0 mi SSW 16.1 mph 20.7 mph N/A   Clear
12:35 PM 89.6 °F 88.1 °F 57.2 °F 33% 30.13 in 10.0 mi SSW 13.8 mph 19.6 mph N/A   Clear
12:55 PM 89.6 °F 88.1 °F 57.2 °F 33% 30.12 in 10.0 mi South 17.3 mph 21.9 mph N/A   Clear
1:15 PM 91.4 °F 89.9 °F 57.2 °F 31% 30.12 in 10.0 mi SSW 12.7 mph 27.6 mph N/A   Clear
1:35 PM 91.4 °F 89.9 °F 57.2 °F 31% 30.11 in 10.0 mi SSW 11.5 mph 20.7 mph N/A   Clear
1:55 PM 91.4 °F 89.4 °F 55.4 °F 29% 30.11 in 10.0 mi SSW 15.0 mph 24.2 mph N/A   Scattered Clouds
2:15 PM 91.4 °F 89.4 °F 55.4 °F 29% 30.10 in 10.0 mi South 15.0 mph 21.9 mph N/A   Scattered Clouds
2:35 PM 91.4 °F 89.4 °F 55.4 °F 29% 30.10 in 10.0 mi North - - N/A   Scattered Clouds
2:55 PM 93.2 °F 91.3 °F 55.4 °F 28% 30.09 in 10.0 mi North - - N/A   Scattered Clouds
3:15 PM 93.2 °F 91.9 °F 57.2 °F 30% 30.09 in 10.0 mi SSW 17.3 mph - N/A   Scattered Clouds
3:35 PM 93.2 °F 91.3 °F 55.4 °F 28% 30.08 in 10.0 mi North - - N/A   Scattered Clouds
3:55 PM 91.4 °F 89.4 °F 55.4 °F 29% 30.07 in 10.0 mi North - - N/A   Clear
4:15 PM 93.2 °F 91.3 °F 55.4 °F 28% 30.07 in 10.0 mi North - - N/A   Clear
4:35 PM 93.2 °F 91.9 °F 57.2 °F 30% 30.06 in 10.0 mi SSW 11.5 mph - N/A   Scattered Clouds
4:55 PM 93.2 °F 91.3 °F 55.4 °F 28% 30.06 in 10.0 mi South 16.1 mph 24.2 mph N/A   Scattered Clouds
5:15 PM 89.6 °F 88.1 °F 57.2 °F 33% 30.06 in 10.0 mi SSE 13.8 mph - N/A   Clear
5:35 PM 89.6 °F 88.1 °F 57.2 °F 33% 30.05 in 10.0 mi South 17.3 mph 20.7 mph N/A   Mostly Cloudy
5:55 PM 91.4 °F 89.9 °F 57.2 °F 31% 30.05 in 10.0 mi SSE 13.8 mph 23.0 mph N/A   Scattered Clouds
6:15 PM 89.6 °F 87.7 °F 55.4 °F 31% 30.05 in 10.0 mi SSE 17.3 mph - N/A   Clear
6:35 PM 91.4 °F 90.7 °F 59.0 °F 34% 30.05 in 10.0 mi South 15.0 mph 19.6 mph N/A   Scattered Clouds
6:55 PM 91.4 °F 89.4 °F 55.4 °F 29% 30.05 in 10.0 mi SSE 12.7 mph - N/A   Scattered Clouds
7:15 PM 89.6 °F 87.7 °F 55.4 °F 31% 30.05 in 10.0 mi SSE 15.0 mph 20.7 mph N/A   Clear
7:35 PM 89.6 °F 87.7 °F 55.4 °F 31% 30.05 in 10.0 mi South 12.7 mph - N/A   Clear
7:55 PM 87.8 °F 86.1 °F 55.4 °F 33% 30.06 in 10.0 mi SSE 12.7 mph - N/A   Clear
8:15 PM 87.8 °F 86.1 °F 55.4 °F 33% 30.06 in 10.0 mi SSE 11.5 mph - N/A   Clear
8:35 PM 86.0 °F 84.5 °F 55.4 °F 35% 30.07 in 10.0 mi SSE 10.4 mph - N/A   Clear
8:55 PM 82.4 °F 82.0 °F 57.2 °F 42% 30.08 in 10.0 mi SSE 10.4 mph - N/A   Clear
9:15 PM 82.4 °F 82.5 °F 59.0 °F 45% 30.09 in 10.0 mi SSE 11.5 mph - N/A   Clear
9:35 PM 80.6 °F 81.1 °F 59.0 °F 48% 30.09 in 10.0 mi SSE 10.4 mph - N/A   Clear
9:55 PM 80.6 °F 81.1 °F 59.0 °F 48% 30.10 in 10.0 mi SSE 10.4 mph - N/A   Clear
10:15 PM 80.6 °F 80.8 °F 57.2 °F 45% 30.10 in 10.0 mi SSE 12.7 mph - N/A   Clear
10:35 PM 80.6 °F 80.8 °F 57.2 °F 45% 30.11 in 10.0 mi SSE 19.6 mph 23.0 mph N/A   Clear
10:55 PM 80.6 °F 81.1 °F 59.0 °F 48% 30.12 in 10.0 mi SSE 17.3 mph 26.5 mph N/A   Clear
11:15 PM 80.6 °F 81.1 °F 59.0 °F 48% 30.12 in 10.0 mi SSE 18.4 mph 24.2 mph N/A   Clear
11:35 PM 80.6 °F 81.1 °F 59.0 °F 48% 30.13 in 10.0 mi SSE 18.4 mph 25.3 mph N/A   Clear
11:55 PM 80.6 °F 81.5 °F 60.8 °F 51% 30.14 in 10.0 mi SSE 18.4 mph 25.3 mph N/A   Clear